Location: Newark
(35.8833°N, 14.5000°E)
Time: 18:59:57
(UTC+00:00)

Altair - Pass Details

Date: 27 November 2019
Orbit: 1502 x 1682 km, 47.2° (Epoch: 09 December)

Event Time Altitude Azimuth Distance (km) Brightness Sun altitude
Rises 02:45:41 0° 286° (WNW) 4,646 - -36.8°
Reaches altitude 10° 02:49:00 10° 293° (WNW) 3,656 - -36.1°
Exits shadow 02:56:50 40° 352° (N) 2,081 8.0 -34.6°
Maximum altitude 02:57:32 41° 2° (N) 2,067 8.0 -34.4°
Drops below altitude 10° 03:06:07 10° 70° (ENE) 3,683 10.2 -32.7°
Sets 03:09:28 0° 78° (ENE) 4,683 11.1 -32.0°
